Вернуться в каталог

STARLINK-31110

АктивенСвязьVLEO
NORAD 58679·PAYLOAD·🇺🇸 United States

Запущен Dec 29, 2023 с Cape Canaveral Space Force Station

Loading…

Ближайшие Пролёты (ближайшие 24 часа)

TLE

СвежийSource: CelesTrak SupGP

Эпоха: Sep 15, 2026, 03:11 UTC

1 58679C 23211N   26258.13312500  .00005516  00000+0  19981-3 0  2587
2 58679  43.0001  95.2354 0001517 275.5634 293.0005 15.27574146    11

Отслеживайте STARLINK-31110 в реальном времени с AllMySat

Download on the App Store